Estación de Negrete
Ultimos registro cada 15 minutos 58
| N° | Estación | Fecha / Hora | Temperatura | Humedad | Lluvia | Velocidad | Dirección | Radiación | Presion |
| 58 | Negrete | 09-05-2026 14:15 | 15 | 58,7 | 0 | 1 | 159 | 539,4 | 1010,1 |
| 57 | Negrete | 09-05-2026 14:00 | 14,7 | 57,7 | 0 | 1 | 166 | 560,6 | 1010,1 |
| 56 | Negrete | 09-05-2026 13:45 | 14,7 | 56,9 | 0 | 0,5 | 166 | 576,9 | 1010,3 |
| 55 | Negrete | 09-05-2026 13:30 | 14,3 | 58,1 | 0 | 1 | 160 | 591,9 | 1010,9 |
| 54 | Negrete | 09-05-2026 13:15 | 13,5 | 56,4 | 0 | 1,5 | 167 | 599,4 | 1011,4 |
| 53 | Negrete | 09-05-2026 13:00 | 13,4 | 58,2 | 0 | 1,5 | 167 | 601,9 | 1011,5 |
| 52 | Negrete | 09-05-2026 12:45 | 13,4 | 56,2 | 0 | 1 | 160 | 606,9 | 1011,9 |
| 51 | Negrete | 09-05-2026 12:30 | 13 | 57,8 | 0 | 1,5 | 170 | 603,1 | 1012,2 |
| 50 | Negrete | 09-05-2026 12:15 | 13,1 | 58 | 0 | 1 | 156 | 596,9 | 1012,5 |
| 49 | Negrete | 09-05-2026 12:00 | 12,5 | 56,2 | 0 | 1 | 161 | 588,1 | 1012,7 |
| 48 | Negrete | 09-05-2026 11:45 | 12,2 | 62 | 0 | 1 | 164 | 574,4 | 1012,9 |
| 47 | Negrete | 09-05-2026 11:30 | 11,8 | 60,3 | 0 | 1,5 | 168 | 556,9 | 1012,9 |
| 46 | Negrete | 09-05-2026 11:15 | 11,5 | 61,8 | 0 | 1,5 | 160 | 538,1 | 1013 |
| 45 | Negrete | 09-05-2026 11:00 | 11,1 | 59,9 | 0 | 1 | 167 | 461,9 | 1013,2 |
| 44 | Negrete | 09-05-2026 10:45 | 10,9 | 63,6 | 0 | 1 | 163 | 468,1 | 1013,3 |
| 43 | Negrete | 09-05-2026 10:30 | 10,3 | 64,4 | 0 | 1 | 166 | 458,1 | 1013,5 |
| 42 | Negrete | 09-05-2026 10:15 | 10,2 | 66,4 | 0 | 0,5 | 166 | 423,1 | 1013,9 |
| 41 | Negrete | 09-05-2026 10:00 | 9,3 | 69,9 | 0 | 0,5 | 164 | 36,9 | 1013,9 |
| 40 | Negrete | 09-05-2026 09:45 | 9,1 | 67,6 | 0 | 1 | 168 | 58,1 | 1014,1 |
| 39 | Negrete | 09-05-2026 09:30 | 8,4 | 69,3 | 0 | 1 | 161 | 233,1 | 1014,1 |
| 38 | Negrete | 09-05-2026 09:15 | 7,4 | 73,3 | 0 | 0,5 | 159 | 223,1 | 1014 |
| 37 | Negrete | 09-05-2026 09:00 | 6,7 | 75,1 | 0 | 0,5 | 143 | 23,1 | 1013,9 |
| 36 | Negrete | 09-05-2026 08:45 | 6,3 | 76,9 | 0 | 0,5 | 143 | 19,4 | 1014,1 |
| 35 | Negrete | 09-05-2026 08:30 | 6 | 77,1 | 0 | 0,5 | 174 | 16,9 | 1013,9 |
| 34 | Negrete | 09-05-2026 08:15 | 5,7 | 78,1 | 0 | 0,5 | 154 | 13,1 | 1013,7 |
| 33 | Negrete | 09-05-2026 08:00 | 5,3 | 79,7 | 0 | 0 | 145 | 9,4 | 1013,5 |
| 32 | Negrete | 09-05-2026 07:45 | 5,2 | 80,6 | 0 | 0 | 152 | 5,6 | 1013,5 |
| 31 | Negrete | 09-05-2026 07:30 | 5,3 | 80,2 | 0 | 0,5 | 147 | 0,6 | 1013,5 |
| 30 | Negrete | 09-05-2026 07:15 | 5,2 | 80,9 | 0 | 0,5 | 147 | 0,6 | 1013,3 |
| 29 | Negrete | 09-05-2026 07:00 | 5,1 | 82,3 | 0 | 0 | 146 | 0,6 | 1013,4 |
| 28 | Negrete | 09-05-2026 06:45 | 4,9 | 83,3 | 0 | 0 | 131 | 0,6 | 1013,4 |
| 27 | Negrete | 09-05-2026 06:30 | 4,8 | 84,4 | 0 | 0 | 136 | 0,6 | 1013,3 |
| 26 | Negrete | 09-05-2026 06:15 | 4,5 | 86,6 | 0 | 0 | 166 | 0,6 | 1013,4 |
| 25 | Negrete | 09-05-2026 06:00 | 3,2 | 93,5 | 0 | 0 | 122 | 0,6 | 1013,5 |
| 24 | Negrete | 09-05-2026 05:45 | 3,3 | 93,4 | 0 | 0 | 76 | 0,6 | 1013,6 |
| 23 | Negrete | 09-05-2026 05:30 | 3,6 | 92,1 | 0 | 0 | 41 | 0,6 | 1013,6 |
| 22 | Negrete | 09-05-2026 05:15 | 4,2 | 89,8 | 0 | 0 | 117 | 0,6 | 1013,9 |
| 21 | Negrete | 09-05-2026 05:00 | 5,4 | 83,9 | 0 | 0 | 136 | 0,6 | 1013,9 |
| 20 | Negrete | 09-05-2026 04:45 | 5,6 | 84,2 | 0 | 0 | 150 | 0,6 | 1013,9 |
| 19 | Negrete | 09-05-2026 04:30 | 5,5 | 85,6 | 0 | 0 | 150 | 0,6 | 1013,7 |
| 18 | Negrete | 09-05-2026 04:15 | 5,5 | 86,3 | 0 | 0,5 | 152 | 0,6 | 1013,8 |
| 17 | Negrete | 09-05-2026 04:00 | 5,8 | 85,6 | 0 | 0,5 | 167 | 0,6 | 1013,9 |
| 16 | Negrete | 09-05-2026 03:45 | 5,8 | 86,7 | 0 | 0,5 | 167 | 0,6 | 1013,8 |
| 15 | Negrete | 09-05-2026 03:30 | 5,8 | 87,3 | 0 | 0,5 | 154 | 0,6 | 1014 |
| 14 | Negrete | 09-05-2026 03:15 | 5,4 | 90 | 0 | 0 | 138 | 0,6 | 1014,2 |
| 13 | Negrete | 09-05-2026 03:00 | 4,7 | 93,9 | 0 | 0 | 150 | 0,6 | 1014 |
| 12 | Negrete | 09-05-2026 02:45 | 4,9 | 94,3 | 0 | 0 | 160 | 0,6 | 1014,4 |
| 11 | Negrete | 09-05-2026 02:30 | 4,9 | 93,8 | 0 | 0 | 147 | 0,6 | 1014,7 |
| 10 | Negrete | 09-05-2026 02:15 | 5,3 | 93,2 | 0 | 0 | 93 | 0,6 | 1014,7 |
| 9 | Negrete | 09-05-2026 02:00 | 4,8 | 95 | 0 | 0 | 80 | 0,6 | 1014,6 |
| 8 | Negrete | 09-05-2026 01:45 | 5,1 | 93,8 | 0 | 0 | 91 | 0,6 | 1014,9 |
| 7 | Negrete | 09-05-2026 01:30 | 5,5 | 93,4 | 0 | 0 | 102 | 0,6 | 1014,9 |
| 6 | Negrete | 09-05-2026 01:15 | 5,9 | 92,3 | 0 | 0 | 83 | 0,6 | 1015 |
| 5 | Negrete | 09-05-2026 01:00 | 6,8 | 90,1 | 0 | 0 | 150 | 0,6 | 1014,9 |
| 4 | Negrete | 09-05-2026 00:45 | 6,7 | 91,3 | 0 | 0 | 157 | 0,6 | 1014,7 |
| 3 | Negrete | 09-05-2026 00:30 | 6,6 | 92,9 | 0 | 0 | 132 | 0,6 | 1014,5 |
| 2 | Negrete | 09-05-2026 00:15 | 6,6 | 93,3 | 0 | 0 | 115 | 0,6 | 1014,6 |
| 1 | Negrete | 09-05-2026 00:00 | 6,6 | 93,4 | 0 | 0 | 124 | 0,6 | 1014,5 |